User: anonymous   Login
Location: Antioch Baptist Church
(32.6696°N, 85.7327°W)
Time: 18:59:38
(UTC+00:00)
Language:

ATLAS CENTAUR R/B - Orbit

View from above orbital plane
View from above orbital plane
View from above satellite
View from above satellite

Ground track
Ground track

The orbit data is extracted from the following two-line orbital elements,

1 38770U 12048N   20261.79853233 0.00000397  00000-0  27362-4 0    07
2 38770  64.6554 229.9913 0139441 109.8931 250.1069 14.97937375    03
Epoch (UTC): 17 September 2020 19:09:53
Eccentricity: 0.0139441
inclination: 64.6554°
perigee height: 476 km
apogee height: 670 km
right ascension of ascending node: 229.9913°
argument of perigee: 109.8931°
revolutions per day: 14.97937375
mean anomaly at epoch: 250.1069°
orbit number at epoch: 0

The dashed part of the orbit path shows where the satellite is in the earth's shadow,  

DLR